This demonstration page uses our WeatherBlox Daily Observations layout. Learn more.

Left ArrowRight Arrow

41.12389, -100.76542

Hourly Observations for March 13, 2020

Temp ( °F °C ) Dew Point ( °F °C ) Humidity (%) Winds ( mph kmh ) Pressure ( in mb ) Visibility ( mi km ) Precip ( " mm )
12:53 am 00:53 Cloudy 30 -1.1 20 -6.7 66 66 Calm 30.21 1023 10 16 0.00 0.00
1:53 am 01:53 Cloudy 32 0 23 -5 69 69 Calm 30.19 1023 10 16 0.00 0.00
2:53 am 02:53 Cloudy 33 0.6 22 -5.6 64 64 Calm 30.21 1023 10 16 0.00 0.00
3:53 am 03:53 Cloudy 33 0.6 23 -5 66 66 Calm 30.22 1024 10 16 0.00 0.00
4:53 am 04:53 Cloudy 33 0.6 22 -5.6 64 64 Calm 30.23 1024 10 16 0.00 0.00
5:53 am 05:53 Cloudy 33 0.6 23 -5 66 66 E 3 6 30.22 1024 10 16 0.00 0.00
6:53 am 06:53 Cloudy 33 0.6 23 -5 66 66 SE 3 6 30.26 1025 10 16 0.00 0.00
7:53 am 07:53 Cloudy 33 0.6 23 -5 66 66 SE 3 6 30.28 1025 10 16 0.00 0.00
8:53 am 08:53 Cloudy 34 1.1 23 -5 64 64 SE 7 11 30.30 1026 10 16 0.00 0.00
9:53 am 09:53 Cloudy 36 2.2 22 -5.6 57 57 SSE 8 13 30.33 1027 10 16 0.00 0.00
10:53 am 10:53 Cloudy 36 2.2 24 -4.4 62 62 S 12 19 30.34 1027 10 16 0.00 0.00
11:53 am 11:53 Cloudy 36 2.2 27 -2.8 70 70 S 12 19 30.36 1028 10 16 0.00 0.00
12:26 pm 12:26 Cloudy with Light Rain 36 2.2 28 -2.2 73 73 S 13 20 30.37 1028 10 16 0.00 0.00
12:53 pm 12:53 Cloudy with Light Snow 35 1.7 28 -2.2 76 76 S 15 24 30.35 1028 8 13 0.01 0.25
1:53 pm 13:53 Cloudy with Light Snow 35 1.7 28 -2.2 76 76 S 12 19 30.33 1027 5 8 0.00 0.00
2:12 pm 14:12 Cloudy with Light Snow 35 1.7 29 -1.7 78 78 SSE 9 15 30.35 1028 3 4 0.01 0.25
2:29 pm 14:29 Cloudy with Light Snow 35 1.7 30 -1.1 82 82 S 8 13 30.35 1028 3 5 0.01 0.25
2:48 pm 14:48 Cloudy with Light Snow 36 2 30 -1 81 81 SSE 9 15 30.34 1027 3 4 0.01 0.25
2:51 pm 14:51 Cloudy with Light Snow 36 2 30 -1 81 81 S 10 17 30.34 1027 2 3 0.01 0.25
2:53 pm 14:53 Cloudy with Light Snow 35 1.7 31 -0.6 85 85 S 12 19 30.32 1027 2 3 0.02 0.51
3:01 pm 15:01 Cloudy with Light Snow 34 1.1 30 -1.1 85 85 S 9 15 30.35 1028 2 2 0.00 0.00
3:35 pm 15:35 Cloudy with Light Snow 34 1.1 31 -0.6 89 89 SSE 14 22 30.32 1027 2 2 0.02 0.51
3:49 pm 15:49 Cloudy with Light Snow 34 1 30 -1 87 87 SSE 15 24 30.32 1027 1 2 0.02 0.51
3:53 pm 15:53 Cloudy with Light Snow 33 0.6 30 -1.1 89 89 S 9 15 30.30 1026 1 2 0.03 0.76
4:06 pm 16:06 Cloudy with Light Snow 33 0.6 30 -1.1 89 89 SSE 10 17 30.33 1027 1 1 0.00 0.00
4:17 pm 16:17 Cloudy with Light Snow 33 0.6 30 -1.1 89 89 SE 13 20 30.32 1027 1 2 0.00 0.00
4:26 pm 16:26 Cloudy with Light Snow 33 0.6 30 -1.1 89 89 SE 13 20 30.32 1027 1 1 0.01 0.25
4:35 pm 16:35 Cloudy with Light Snow 33 0.6 30 -1.1 89 89 SE 16 26 30.31 1026 1 2 0.03 0.76
4:53 pm 16:53 Cloudy with Light Snow 33 0.6 30 -1.1 89 89 SE 14 22 30.27 1025 2 2 0.04 1.02
5:21 pm 17:21 Cloudy with Light Snow 33 0.6 30 -1.1 89 89 SE 15 24 30.30 1026 3 5 0.02 0.51
5:45 pm 17:45 Cloudy with Light Snow 33 0.6 30 -1.1 89 89 SE 18 30 30.29 1026 6 10 0.03 0.76
5:53 pm 17:53 Cloudy with Light Snow 33 0.6 30 -1.1 89 89 SE 13 20 30.26 1025 9 14 0.03 0.76
6:01 pm 18:01 Cloudy with Light Snow 34 1.1 30 -1.1 85 85 SE 14 22 30.28 1025 9 14 0.00 0.00
6:12 pm 18:12 Cloudy with Light Wintry Mix 33 0.6 30 -1.1 89 89 SSE 16 26 30.29 1026 8 13 0.00 0.00
6:29 pm 18:29 Cloudy with Light Snow 33 0.6 30 -1.1 89 89 SE 16 26 30.29 1026 4 6 0.00 0.00
6:34 pm 18:34 Cloudy with Light Snow 33 0.6 29 -1.7 85 85 SE 17 28 30.29 1026 3 5 0.00 0.00
6:39 pm 18:39 Cloudy with Light Snow 33 0.6 29 -1.7 85 85 SE 17 28 30.29 1026 2 3 0.00 0.00
6:49 pm 18:49 Cloudy with Light Snow 34 1 28 -2 81 81 SE 16 26 30.28 1025 2 2 0.01 0.25
6:53 pm 18:53 Cloudy with Light Snow 33 0.6 29 -1.7 85 85 SE 16 26 30.26 1025 2 2 0.01 0.25
7:14 pm 19:14 Cloudy with Light Snow 33 0.6 29 -1.7 85 85 SE 17 28 30.30 1026 2 3 0.01 0.25
7:39 pm 19:39 Cloudy with Light Snow 32 0 29 -1.7 88 88 SE 18 30 30.29 1026 3 5 0.01 0.25
7:44 pm 19:44 Cloudy with Light Snow 32 0 29 -1.7 88 88 SE 15 24 30.29 1026 3 4 0.01 0.25
7:53 pm 19:53 Cloudy with Light Snow 32 0 29 -1.7 88 88 SE 16 26 30.26 1025 3 4 0.02 0.51
8:25 pm 20:25 Cloudy with Light Snow 32 0 29 -1.7 88 88 SSE 18 30 30.31 1027 2 3 0.01 0.25
8:33 pm 20:33 Cloudy with Light Snow 32 0 29 -1.7 88 88 SE 15 24 30.31 1027 2 3 0.02 0.51
8:53 pm 20:53 Cloudy with Light Snow 32 0 28 -2.2 85 85 SE 17 28 30.26 1025 2 3 0.03 0.76
9:00 pm 21:00 Windy with Snow Likely 32 0 28 -2.2 85 85 SE 22 35 30.30 1026 2 3 0.00 0.00
9:28 pm 21:28 Windy with Snow Likely 31 -0.6 28 -2.2 89 89 SE 20 31 30.33 1027 1 2 0.01 0.25
9:37 pm 21:37 Windy with Snow Likely 31 -0.6 28 -2.2 89 89 SE 20 31 30.32 1027 2 2 0.02 0.51
9:53 pm 21:53 Cloudy with Light Snow 31 -0.6 28 -2.2 89 89 SE 15 24 30.29 1026 2 3 0.03 0.76
10:09 pm 22:09 Cloudy with Light Snow 31 -0.6 28 -2.2 89 89 SE 16 26 30.34 1027 2 3 0.00 0.00
10:15 pm 22:15 Cloudy with Light Snow 31 -0.6 28 -2.2 89 89 SE 15 24 30.33 1027 2 3 0.01 0.25
10:35 pm 22:35 Cloudy with Light Snow 31 -0.6 28 -2.2 89 89 SE 14 22 30.34 1027 2 3 0.02 0.51
10:53 pm 22:53 Cloudy with Light Snow 31 -0.6 28 -2.2 89 89 SE 16 26 30.29 1026 2 3 0.02 0.51
11:32 pm 23:32 Cloudy with Light Snow 31 -0.6 28 -2.2 89 89 SE 15 24 30.34 1027 3 4 0.01 0.25
11:41 pm 23:41 Cloudy with Light Snow 31 -0.6 28 -2.2 89 89 SE 13 20 30.34 1027 3 4 0.01 0.25
11:53 pm 23:53 Cloudy with Light Snow 31 -0.6 28 -2.2 89 89 SE 15 24 30.29 1026 3 4 0.01 0.25

Powered by AerisWeather